Location: Kalberh�ni
(46.4610°N, 7.2453°E)
Time: 07:57:10
(UTC+00:00)

Lacrosse 4 Rocket - Pass Details

Date: 23 October 2021
Orbit: 538 x 619 km, 68.0° (Epoch: 28 November)

Event Time Altitude Azimuth Distance (km) Brightness Sun altitude
Rises 17:22:42 0° 334° (NNW) 2,804 5.2 -9.7°
Reaches altitude 10° 17:25:02 10° 342° (NNW) 1,915 4.2 -10.1°
Maximum altitude 17:29:04 38° 51° (NE) 914 2.0 -10.8°
Enters shadow 17:33:03 11° 120° (ESE) 1,899 3.6 -11.5°
